N482CS CYYR-BIRK

Flight info

Callsign N482CS
Flight time N/A
Altitude 11000
Route HOIST/M019F110 DCT 58N050W 61N040W 63N030W DCT EPENI DCT ELDIS
Aircraft C172/L-SFG/C

Departure

Time N/A
Airport Goose Bay Airport (CYYR)

Arrival

Time 2026-05-08 21:57
Airport Reykjavík Domestic Airport (BIRK)
Time Latitude Longitude Altitude Speed Heading
2026-05-08 17:57 61.01158 -39.95392 11006 ft 137 kts 69°
2026-05-08 17:57 61.01592 -39.93649 11006 ft 137 kts 69°
2026-05-08 17:58 61.02027 -39.91912 11005 ft 136 kts 69°
2026-05-08 17:58 61.02314 -39.90764 11004 ft 136 kts 69°
2026-05-08 17:58 61.02748 -39.89032 11004 ft 136 kts 69°
2026-05-08 17:58 61.03182 -39.87300 11003 ft 136 kts 69°
2026-05-08 17:59 61.03615 -39.85569 11003 ft 136 kts 69°
2026-05-08 17:59 61.04047 -39.83841 11008 ft 135 kts 69°
2026-05-08 17:59 61.04478 -39.82115 11007 ft 135 kts 69°
2026-05-08 17:59 61.04910 -39.80384 11008 ft 136 kts 69°
2026-05-08 18:00 61.05342 -39.78652 11010 ft 136 kts 69°
2026-05-08 18:00 61.06205 -39.75189 11013 ft 136 kts 69°
2026-05-08 18:00 61.06636 -39.73456 11013 ft 136 kts 69°
2026-05-08 18:01 61.07069 -39.71717 11011 ft 136 kts 67°
2026-05-08 18:01 61.07503 -39.69969 11012 ft 137 kts 67°
2026-05-08 18:01 61.07937 -39.68216 11012 ft 137 kts 67°
2026-05-08 18:01 61.08373 -39.66461 11013 ft 137 kts 67°
2026-05-08 18:02 61.08809 -39.64701 11013 ft 138 kts 68°
2026-05-08 18:02 61.09240 -39.62961 11013 ft 138 kts 67°
2026-05-08 18:02 61.09682 -39.61173 11013 ft 138 kts 67°
2026-05-08 18:02 61.10118 -39.59408 11018 ft 138 kts 67°
2026-05-08 18:03 61.10554 -39.57642 11021 ft 138 kts 67°
2026-05-08 18:03 61.10985 -39.55899 11021 ft 138 kts 68°
2026-05-08 18:03 61.11421 -39.54132 11021 ft 138 kts 68°
2026-05-08 18:03 61.11858 -39.52361 11021 ft 138 kts 67°
2026-05-08 18:04 61.12293 -39.50590 11018 ft 138 kts 68°
2026-05-08 18:04 61.12729 -39.48818 11018 ft 138 kts 68°
2026-05-08 18:04 61.13165 -39.47044 11018 ft 138 kts 68°
2026-05-08 18:04 61.13601 -39.45270 11018 ft 138 kts 68°
2026-05-08 18:05 61.14037 -39.43494 11017 ft 138 kts 68°
2026-05-08 18:05 61.14472 -39.41721 11016 ft 138 kts 68°
2026-05-08 18:05 61.14907 -39.39944 11016 ft 138 kts 68°
2026-05-08 18:05 61.15342 -39.38167 11016 ft 138 kts 68°
2026-05-08 18:06 61.15778 -39.36387 11020 ft 138 kts 68°
2026-05-08 18:06 61.16212 -39.34611 11019 ft 138 kts 68°
2026-05-08 18:06 61.16647 -39.32833 11019 ft 138 kts 68°
2026-05-08 18:06 61.17080 -39.31055 11019 ft 138 kts 68°
2026-05-08 18:07 61.17514 -39.29275 11022 ft 139 kts 68°
2026-05-08 18:07 61.17948 -39.27493 11022 ft 138 kts 68°
2026-05-08 18:07 61.18382 -39.25710 11022 ft 138 kts 68°
2026-05-08 18:07 61.18815 -39.23932 11021 ft 138 kts 68°
2026-05-08 18:08 61.19247 -39.22156 11022 ft 138 kts 68°
2026-05-08 18:08 61.19678 -39.20382 11022 ft 138 kts 68°
2026-05-08 18:08 61.20108 -39.18608 11022 ft 137 kts 68°
2026-05-08 18:08 61.20537 -39.16837 11021 ft 138 kts 68°
2026-05-08 18:09 61.20967 -39.15065 11018 ft 138 kts 68°
2026-05-08 18:09 61.21396 -39.13292 11018 ft 138 kts 68°
2026-05-08 18:09 61.21824 -39.11523 11026 ft 137 kts 66°
2026-05-08 18:09 61.22252 -39.09757 11025 ft 137 kts 66°
2026-05-08 18:10 61.22678 -39.07991 11026 ft 137 kts 66°
2026-05-08 18:10 61.23105 -39.06221 11027 ft 137 kts 66°
2026-05-08 18:10 61.23532 -39.04447 11027 ft 137 kts 66°
2026-05-08 18:10 61.23960 -39.02670 11027 ft 138 kts 66°
2026-05-08 18:11 61.24387 -39.00894 11028 ft 138 kts 66°
2026-05-08 18:11 61.24815 -38.99117 11028 ft 138 kts 66°
2026-05-08 18:11 61.25243 -38.97337 11027 ft 138 kts 66°
2026-05-08 18:11 61.25670 -38.95560 11027 ft 138 kts 66°
2026-05-08 18:12 61.26091 -38.93800 11029 ft 138 kts 66°
2026-05-08 18:12 61.26518 -38.92019 11029 ft 138 kts 66°
2026-05-08 18:12 61.26944 -38.90242 11029 ft 137 kts 67°
2026-05-08 18:12 61.27371 -38.88461 11029 ft 137 kts 67°
2026-05-08 18:13 61.27796 -38.86682 11032 ft 138 kts 67°
2026-05-08 18:13 61.28220 -38.84912 11037 ft 137 kts 66°
2026-05-08 18:13 61.28643 -38.83136 11038 ft 137 kts 66°
2026-05-08 18:13 61.29066 -38.81362 11040 ft 137 kts 66°
2026-05-08 18:14 61.29491 -38.79578 11036 ft 137 kts 66°
2026-05-08 18:14 61.29916 -38.77795 11037 ft 138 kts 66°
2026-05-08 18:14 61.30342 -38.76005 11037 ft 138 kts 66°
2026-05-08 18:14 61.30768 -38.74212 11038 ft 138 kts 66°
2026-05-08 18:15 61.31194 -38.72418 11040 ft 138 kts 66°
2026-05-08 18:15 61.31621 -38.70621 11040 ft 139 kts 66°
2026-05-08 18:15 61.32047 -38.68823 11040 ft 139 kts 66°
2026-05-08 18:15 61.32474 -38.67023 11040 ft 139 kts 66°
2026-05-08 18:16 61.32899 -38.65226 11036 ft 138 kts 66°
2026-05-08 18:16 61.33324 -38.63431 11036 ft 138 kts 66°
2026-05-08 18:16 61.33749 -38.61633 11043 ft 138 kts 66°
2026-05-08 18:16 61.34210 -38.59876 11043 ft 138 kts 54°
2026-05-08 18:17 61.34780 -38.58269 11045 ft 138 kts 54°
2026-05-08 18:17 61.35348 -38.56655 11044 ft 138 kts 54°
2026-05-08 18:17 61.35916 -38.55034 11045 ft 138 kts 54°
2026-05-08 18:17 61.36476 -38.53436 11044 ft 138 kts 54°
2026-05-08 18:18 61.36991 -38.51751 11045 ft 137 kts 72°
2026-05-08 18:18 61.37217 -38.49844 11051 ft 135 kts 84°
2026-05-08 18:18 61.37400 -38.47918 11051 ft 136 kts 84°
2026-05-08 18:18 61.37579 -38.45985 11051 ft 136 kts 85°
2026-05-08 18:19 61.37775 -38.44056 11045 ft 138 kts 74°
2026-05-08 18:19 61.38237 -38.42299 11045 ft 138 kts 62°
2026-05-08 18:19 61.38625 -38.40486 11041 ft 136 kts 86°
2026-05-08 18:19 61.38811 -38.38557 11047 ft 136 kts 83°
2026-05-08 18:20 61.39005 -38.36630 11055 ft 136 kts 83°
2026-05-08 18:20 61.39196 -38.34703 11056 ft 136 kts 83°
2026-05-08 18:20 61.39388 -38.32776 11056 ft 136 kts 83°
2026-05-08 18:20 61.39645 -38.30874 11051 ft 138 kts 71°
2026-05-08 18:21 61.39994 -38.29010 11054 ft 138 kts 70°
2026-05-08 18:21 61.40376 -38.27168 11055 ft 138 kts 70°
2026-05-08 18:21 61.40755 -38.25324 11054 ft 138 kts 70°
2026-05-08 18:21 61.41138 -38.23478 11050 ft 139 kts 70°
2026-05-08 18:22 61.41521 -38.21629 11049 ft 139 kts 70°
2026-05-08 18:22 61.41917 -38.19795 11048 ft 139 kts 68°
2026-05-08 18:22 61.42321 -38.17969 11047 ft 138 kts 68°
2026-05-08 18:22 61.42724 -38.16143 11047 ft 138 kts 68°
2026-05-08 18:23 61.43127 -38.14317 11050 ft 138 kts 68°
2026-05-08 18:23 61.43528 -38.12491 11050 ft 138 kts 68°
2026-05-08 18:23 61.43916 -38.10657 11051 ft 138 kts 73°
2026-05-08 18:23 61.44224 -38.08765 11052 ft 138 kts 75°
2026-05-08 18:24 61.44531 -38.06869 11051 ft 138 kts 75°
2026-05-08 18:24 61.44840 -38.04967 11052 ft 138 kts 75°
2026-05-08 18:24 61.45149 -38.03069 11056 ft 138 kts 73°
2026-05-08 18:24 61.45529 -38.01225 11050 ft 138 kts 70°
2026-05-08 18:25 61.45915 -37.99383 11049 ft 138 kts 69°
2026-05-08 18:25 61.46302 -37.97539 11050 ft 138 kts 69°
2026-05-08 18:25 61.46686 -37.95695 11050 ft 138 kts 69°
2026-05-08 18:25 61.47070 -37.93846 11050 ft 138 kts 70°
2026-05-08 18:26 61.47457 -37.92004 11049 ft 139 kts 67°
2026-05-08 18:26 61.47895 -37.90199 11049 ft 139 kts 66°
2026-05-08 18:26 61.48318 -37.88413 11050 ft 139 kts 68°
2026-05-08 18:26 61.48725 -37.86585 11054 ft 138 kts 67°
2026-05-08 18:27 61.49116 -37.84742 11057 ft 139 kts 68°
2026-05-08 18:27 61.49370 -37.83484 11057 ft 139 kts 68°
2026-05-08 18:27 61.49867 -37.81014 11058 ft 139 kts 68°
2026-05-08 18:27 61.50241 -37.79144 11058 ft 139 kts 68°
2026-05-08 18:28 61.50614 -37.77272 11057 ft 139 kts 68°
2026-05-08 18:28 61.50989 -37.75400 11057 ft 139 kts 68°
2026-05-08 18:28 61.51363 -37.73524 11058 ft 139 kts 68°
2026-05-08 18:28 61.51738 -37.71652 11058 ft 139 kts 68°
2026-05-08 18:29 61.52110 -37.69781 11057 ft 139 kts 68°
2026-05-08 18:29 61.52482 -37.67904 11056 ft 139 kts 68°
2026-05-08 18:29 61.52853 -37.66029 11056 ft 139 kts 68°
2026-05-08 18:29 61.53223 -37.64150 11065 ft 139 kts 68°
2026-05-08 18:30 61.53593 -37.62273 11063 ft 140 kts 68°
2026-05-08 18:30 61.53965 -37.60389 11064 ft 140 kts 69°
2026-05-08 18:30 61.54338 -37.58506 11066 ft 140 kts 69°
2026-05-08 18:30 61.54724 -37.56633 11067 ft 140 kts 65°
2026-05-08 18:31 61.55156 -37.54805 11067 ft 140 kts 60°
2026-05-08 18:31 61.55628 -37.53020 11067 ft 140 kts 60°
2026-05-08 18:31 61.56133 -37.51274 11066 ft 140 kts 57°
2026-05-08 18:31 61.56644 -37.49536 11067 ft 140 kts 57°
2026-05-08 18:32 61.57153 -37.47796 11064 ft 140 kts 57°
2026-05-08 18:32 61.57660 -37.46057 11063 ft 140 kts 57°
2026-05-08 18:32 61.58167 -37.44318 11065 ft 140 kts 57°
2026-05-08 18:32 61.58673 -37.42578 11065 ft 140 kts 58°
2026-05-08 18:33 61.59179 -37.40840 11067 ft 139 kts 58°
2026-05-08 18:33 61.59685 -37.39102 11067 ft 139 kts 58°
2026-05-08 18:33 61.60183 -37.37384 11067 ft 140 kts 58°
2026-05-08 18:33 61.60686 -37.35643 11073 ft 140 kts 58°
2026-05-08 18:34 61.61189 -37.33899 11072 ft 139 kts 58°
2026-05-08 18:34 61.61691 -37.32161 11074 ft 139 kts 58°
2026-05-08 18:34 61.62193 -37.30423 11073 ft 139 kts 58°
2026-05-08 18:34 61.62694 -37.28683 11073 ft 139 kts 58°
2026-05-08 18:35 61.63193 -37.26942 11073 ft 139 kts 58°
2026-05-08 18:35 61.63693 -37.25202 11073 ft 139 kts 58°
2026-05-08 18:35 61.64193 -37.23454 11076 ft 139 kts 57°
2026-05-08 18:35 61.64669 -37.21679 11077 ft 139 kts 58°
2026-05-08 18:36 61.65137 -37.19897 11075 ft 139 kts 58°
2026-05-08 18:36 61.65604 -37.18115 11073 ft 139 kts 58°
2026-05-08 18:36 61.66070 -37.16334 11072 ft 139 kts 58°
2026-05-08 18:36 61.66534 -37.14556 11072 ft 139 kts 58°
2026-05-08 18:37 61.66996 -37.12779 11074 ft 139 kts 59°
2026-05-08 18:37 61.67459 -37.11000 11080 ft 139 kts 58°
2026-05-08 18:37 61.67922 -37.09218 11080 ft 139 kts 58°
2026-05-08 18:37 61.68385 -37.07434 11080 ft 139 kts 58°
2026-05-08 18:38 61.68847 -37.05649 11080 ft 139 kts 59°
2026-05-08 18:38 61.69310 -37.03861 11080 ft 139 kts 59°
2026-05-08 18:38 61.69771 -37.02074 11080 ft 139 kts 59°
2026-05-08 18:38 61.70234 -37.00285 11080 ft 139 kts 59°
2026-05-08 18:39 61.70695 -36.98495 11076 ft 139 kts 59°
2026-05-08 18:39 61.71149 -36.96727 11076 ft 139 kts 59°
2026-05-08 18:39 61.71608 -36.94935 11076 ft 139 kts 59°
2026-05-08 18:39 61.72068 -36.93145 11076 ft 139 kts 59°
2026-05-08 18:40 61.72529 -36.91351 11076 ft 139 kts 59°
2026-05-08 18:40 61.72989 -36.89552 11077 ft 139 kts 59°
2026-05-08 18:40 61.73441 -36.87745 11085 ft 140 kts 60°
2026-05-08 18:40 61.73889 -36.85928 11085 ft 140 kts 60°
2026-05-08 18:41 61.74337 -36.84111 11084 ft 139 kts 60°
2026-05-08 18:41 61.74783 -36.82294 11084 ft 139 kts 60°
2026-05-08 18:41 61.75227 -36.80476 11083 ft 139 kts 60°
2026-05-08 18:41 61.75671 -36.78656 11083 ft 139 kts 60°
2026-05-08 18:42 61.76115 -36.76837 11084 ft 139 kts 60°
2026-05-08 18:42 61.76545 -36.75001 11084 ft 140 kts 63°
2026-05-08 18:42 61.76946 -36.73135 11085 ft 140 kts 65°
2026-05-08 18:42 61.77326 -36.71244 11085 ft 140 kts 66°
2026-05-08 18:43 61.77705 -36.69353 11085 ft 140 kts 66°
2026-05-08 18:43 61.78085 -36.67464 11084 ft 140 kts 65°
2026-05-08 18:43 61.78463 -36.65572 11084 ft 140 kts 66°
2026-05-08 18:43 61.78818 -36.63660 11084 ft 140 kts 68°
2026-05-08 18:44 61.79170 -36.61742 11101 ft 140 kts 66°
2026-05-08 18:44 61.79500 -36.59808 11103 ft 140 kts 68°
2026-05-08 18:44 61.79821 -36.57872 11102 ft 140 kts 68°
2026-05-08 18:44 61.80141 -36.55934 11102 ft 140 kts 68°
2026-05-08 18:45 61.80460 -36.53993 11101 ft 139 kts 68°
2026-05-08 18:45 61.80776 -36.52056 11101 ft 139 kts 68°
2026-05-08 18:45 61.81093 -36.50117 11100 ft 140 kts 68°
2026-05-08 18:45 61.81410 -36.48176 11100 ft 140 kts 68°
2026-05-08 18:46 61.81726 -36.46232 11100 ft 140 kts 68°
2026-05-08 18:46 61.82041 -36.44289 11100 ft 140 kts 68°
2026-05-08 18:46 61.82354 -36.42347 11100 ft 140 kts 68°
2026-05-08 18:46 61.82667 -36.40405 11100 ft 140 kts 68°
2026-05-08 18:47 61.82976 -36.38485 11097 ft 140 kts 69°
2026-05-08 18:47 61.83288 -36.36537 11097 ft 140 kts 69°
2026-05-08 18:47 61.83499 -36.35222 11097 ft 140 kts 68°
2026-05-08 18:47 61.83912 -36.32643 11107 ft 139 kts 69°
2026-05-08 18:48 61.84222 -36.30701 11106 ft 139 kts 69°
2026-05-08 18:48 61.84431 -36.29386 11106 ft 139 kts 69°
2026-05-08 18:48 61.84740 -36.27444 11105 ft 139 kts 69°
2026-05-08 18:48 61.85048 -36.25504 11105 ft 139 kts 69°
2026-05-08 18:49 61.85355 -36.23564 11104 ft 139 kts 69°
2026-05-08 18:49 61.85662 -36.21623 11104 ft 139 kts 69°
2026-05-08 18:49 61.85969 -36.19678 11104 ft 139 kts 69°
2026-05-08 18:49 61.86274 -36.17734 11104 ft 139 kts 69°
2026-05-08 18:50 61.86575 -36.15815 11104 ft 139 kts 69°
2026-05-08 18:50 61.86880 -36.13870 11104 ft 139 kts 69°
2026-05-08 18:50 61.87184 -36.11924 11104 ft 139 kts 69°
2026-05-08 18:50 61.87488 -36.09976 11103 ft 139 kts 69°
2026-05-08 18:51 61.87790 -36.08031 11103 ft 139 kts 69°
2026-05-08 18:51 61.88093 -36.06084 11105 ft 139 kts 69°
2026-05-08 18:51 61.88394 -36.04138 11111 ft 139 kts 69°
2026-05-08 18:51 61.88695 -36.02188 11111 ft 139 kts 69°
2026-05-08 18:52 61.88997 -36.00236 11111 ft 139 kts 69°
2026-05-08 18:52 61.89297 -35.98280 11111 ft 139 kts 69°
2026-05-08 18:52 61.89598 -35.96325 11110 ft 139 kts 69°
2026-05-08 18:52 61.89897 -35.94372 11110 ft 139 kts 70°
2026-05-08 18:53 61.90195 -35.92419 11120 ft 139 kts 69°
2026-05-08 18:53 61.90479 -35.90459 11120 ft 139 kts 69°
2026-05-08 18:53 61.90758 -35.88495 11120 ft 139 kts 70°
2026-05-08 18:53 61.91038 -35.86531 11120 ft 139 kts 70°
2026-05-08 18:54 61.91317 -35.84563 11119 ft 139 kts 70°
2026-05-08 18:54 61.91595 -35.82600 11119 ft 139 kts 70°
2026-05-08 18:54 61.91873 -35.80635 11119 ft 139 kts 70°
2026-05-08 18:54 61.92150 -35.78669 11121 ft 139 kts 70°
2026-05-08 18:55 61.92702 -35.74731 11120 ft 139 kts 70°
2026-05-08 18:55 61.92977 -35.72762 11119 ft 139 kts 70°
2026-05-08 18:55 61.93253 -35.70795 11120 ft 139 kts 70°
2026-05-08 18:56 61.93528 -35.68825 11121 ft 139 kts 70°
2026-05-08 18:56 61.93804 -35.66852 11121 ft 140 kts 70°
2026-05-08 18:56 61.94078 -35.64872 11121 ft 140 kts 70°
2026-05-08 18:56 61.94353 -35.62892 11122 ft 140 kts 70°
2026-05-08 18:57 61.94627 -35.60909 11119 ft 140 kts 70°
2026-05-08 18:57 61.94901 -35.58925 11119 ft 140 kts 70°
2026-05-08 18:57 61.95170 -35.56938 11109 ft 140 kts 70°
2026-05-08 18:57 61.95430 -35.54949 11109 ft 140 kts 70°
2026-05-08 18:58 61.95689 -35.52961 11109 ft 140 kts 70°
2026-05-08 18:58 61.95947 -35.50971 11111 ft 139 kts 70°
2026-05-08 18:58 61.96204 -35.48980 11115 ft 140 kts 71°
2026-05-08 18:58 61.96461 -35.46976 11111 ft 141 kts 71°
2026-05-08 18:59 61.96718 -35.44981 11109 ft 140 kts 71°
2026-05-08 18:59 61.96973 -35.42996 11111 ft 139 kts 71°
2026-05-08 18:59 61.97224 -35.41046 11111 ft 139 kts 71°
2026-05-08 18:59 61.97477 -35.39067 11111 ft 139 kts 71°
2026-05-08 19:00 61.97729 -35.37085 11115 ft 138 kts 71°
2026-05-08 19:00 61.97979 -35.35104 11115 ft 139 kts 71°
2026-05-08 19:00 61.98228 -35.33121 11114 ft 139 kts 71°
2026-05-08 19:00 61.98476 -35.31134 11114 ft 139 kts 71°
2026-05-08 19:01 61.98724 -35.29150 11112 ft 139 kts 71°
2026-05-08 19:01 61.98973 -35.27161 11113 ft 139 kts 71°
2026-05-08 19:01 61.99222 -35.25173 11114 ft 139 kts 71°
2026-05-08 19:01 61.99471 -35.23182 11114 ft 139 kts 71°
2026-05-08 19:02 61.99720 -35.21193 11139 ft 139 kts 71°
2026-05-08 19:02 61.99959 -35.19194 11135 ft 139 kts 71°
2026-05-08 19:02 62.00192 -35.17204 11134 ft 139 kts 71°
2026-05-08 19:02 62.00425 -35.15219 11132 ft 138 kts 71°
2026-05-08 19:03 62.00654 -35.13262 11138 ft 138 kts 71°
2026-05-08 19:03 62.00884 -35.11290 11136 ft 137 kts 72°
2026-05-08 19:03 62.01115 -35.09290 11136 ft 137 kts 72°
2026-05-08 19:03 62.01344 -35.07315 11136 ft 137 kts 71°
2026-05-08 19:04 62.01572 -35.05337 11138 ft 138 kts 71°
2026-05-08 19:04 62.01800 -35.03357 11138 ft 138 kts 71°
2026-05-08 19:04 62.02026 -35.01375 11138 ft 138 kts 72°
2026-05-08 19:04 62.02252 -34.99391 11138 ft 138 kts 72°
2026-05-08 19:05 62.02477 -34.97406 11137 ft 138 kts 72°
2026-05-08 19:05 62.02702 -34.95422 11137 ft 138 kts 72°
2026-05-08 19:05 62.02927 -34.93435 11137 ft 138 kts 72°
2026-05-08 19:05 62.03151 -34.91446 11136 ft 138 kts 72°
2026-05-08 19:06 62.03374 -34.89461 11136 ft 138 kts 72°
2026-05-08 19:06 62.03596 -34.87480 11135 ft 137 kts 72°
2026-05-08 19:06 62.03817 -34.85500 11135 ft 137 kts 72°
2026-05-08 19:06 62.04109 -34.83605 11133 ft 136 kts 64°
2026-05-08 19:07 62.04434 -34.81710 11130 ft 136 kts 64°
2026-05-08 19:07 62.04757 -34.79813 11131 ft 136 kts 64°
2026-05-08 19:07 62.05079 -34.77914 11131 ft 136 kts 64°
2026-05-08 19:07 62.05400 -34.76017 11134 ft 136 kts 64°
2026-05-08 19:08 62.05721 -34.74120 11132 ft 136 kts 64°
2026-05-08 19:08 62.06042 -34.72232 11131 ft 135 kts 64°
2026-05-08 19:08 62.06372 -34.70354 11127 ft 135 kts 62°
2026-05-08 19:08 62.06728 -34.68505 11127 ft 135 kts 62°
2026-05-08 19:09 62.07074 -34.66639 11126 ft 135 kts 62°
2026-05-08 19:09 62.07419 -34.64771 11127 ft 136 kts 62°
2026-05-08 19:09 62.07765 -34.62900 11135 ft 136 kts 62°
2026-05-08 19:09 62.08143 -34.61066 11134 ft 134 kts 57°
2026-05-08 19:10 62.08549 -34.59265 11135 ft 135 kts 57°
2026-05-08 19:10 62.08952 -34.57463 11135 ft 135 kts 57°
2026-05-08 19:10 62.09362 -34.55668 11135 ft 134 kts 56°
2026-05-08 19:10 62.09790 -34.53894 11134 ft 134 kts 56°
2026-05-08 19:11 62.10217 -34.52118 11134 ft 134 kts 56°
2026-05-08 19:11 62.10639 -34.50369 11145 ft 134 kts 56°
2026-05-08 19:11 62.11073 -34.48582 11145 ft 134 kts 56°
2026-05-08 19:11 62.11499 -34.46819 11144 ft 133 kts 56°
2026-05-08 19:12 62.11923 -34.45060 11145 ft 133 kts 56°
2026-05-08 19:12 62.12347 -34.43299 11145 ft 133 kts 56°
2026-05-08 19:12 62.12771 -34.41536 11144 ft 133 kts 56°
2026-05-08 19:12 62.13194 -34.39770 11144 ft 133 kts 56°
2026-05-08 19:13 62.13616 -34.38005 11149 ft 133 kts 56°
2026-05-08 19:13 62.14032 -34.36263 11149 ft 133 kts 56°
2026-05-08 19:13 62.14451 -34.34497 11149 ft 133 kts 56°
2026-05-08 19:13 62.14871 -34.32731 11149 ft 133 kts 56°
2026-05-08 19:14 62.15292 -34.30968 11145 ft 133 kts 56°
2026-05-08 19:14 62.15713 -34.29197 11146 ft 134 kts 56°
2026-05-08 19:14 62.16133 -34.27424 11146 ft 134 kts 56°
2026-05-08 19:14 62.16552 -34.25649 11147 ft 134 kts 56°
2026-05-08 19:15 62.16971 -34.23867 11147 ft 134 kts 56°
2026-05-08 19:15 62.17389 -34.22083 11146 ft 134 kts 57°
2026-05-08 19:15 62.17807 -34.20299 11146 ft 134 kts 57°
2026-05-08 19:15 62.18226 -34.18515 11145 ft 134 kts 57°
2026-05-08 19:16 62.18644 -34.16731 11144 ft 134 kts 57°
2026-05-08 19:16 62.19061 -34.14944 11144 ft 134 kts 57°
2026-05-08 19:16 62.19477 -34.13158 11146 ft 134 kts 57°
2026-05-08 19:16 62.19892 -34.11373 11145 ft 134 kts 57°
2026-05-08 19:17 62.20305 -34.09590 11145 ft 134 kts 57°
2026-05-08 19:17 62.20718 -34.07803 11146 ft 134 kts 57°
2026-05-08 19:17 62.21130 -34.06015 11146 ft 134 kts 57°
2026-05-08 19:17 62.21542 -34.04226 11146 ft 134 kts 57°
2026-05-08 19:18 62.21953 -34.02436 11145 ft 134 kts 57°
2026-05-08 19:18 62.22364 -34.00645 11145 ft 134 kts 57°
2026-05-08 19:18 62.22774 -33.98853 11145 ft 134 kts 57°
2026-05-08 19:18 62.23184 -33.97060 11145 ft 134 kts 57°
2026-05-08 19:19 62.23592 -33.95263 11141 ft 134 kts 57°
2026-05-08 19:19 62.24000 -33.93467 11141 ft 134 kts 57°
2026-05-08 19:19 62.24408 -33.91673 11140 ft 134 kts 57°
2026-05-08 19:19 62.24818 -33.89875 11141 ft 134 kts 57°
2026-05-08 19:20 62.25220 -33.88102 11160 ft 134 kts 58°
2026-05-08 19:20 62.25358 -33.87493 11161 ft 134 kts 58°
2026-05-08 19:20 62.26039 -33.84504 11160 ft 134 kts 57°
2026-05-08 19:20 62.26446 -33.82702 11159 ft 134 kts 57°
2026-05-08 19:21 62.26852 -33.80900 11159 ft 134 kts 58°
2026-05-08 19:21 62.27256 -33.79104 11159 ft 134 kts 58°
2026-05-08 19:21 62.27660 -33.77304 11159 ft 134 kts 58°
2026-05-08 19:21 62.28064 -33.75503 11158 ft 134 kts 58°
2026-05-08 19:22 62.28468 -33.73704 11156 ft 134 kts 58°
2026-05-08 19:22 62.28871 -33.71898 11156 ft 134 kts 58°
2026-05-08 19:22 62.29273 -33.70090 11156 ft 134 kts 58°
2026-05-08 19:22 62.29674 -33.68279 11156 ft 134 kts 58°
2026-05-08 19:23 62.30074 -33.66468 11156 ft 134 kts 58°
2026-05-08 19:23 62.30475 -33.64654 11157 ft 134 kts 58°
2026-05-08 19:23 62.30877 -33.62839 11160 ft 135 kts 58°
2026-05-08 19:23 62.31278 -33.61020 11158 ft 134 kts 58°
2026-05-08 19:24 62.31676 -33.59203 11159 ft 134 kts 58°
2026-05-08 19:24 62.32074 -33.57387 11158 ft 134 kts 58°
2026-05-08 19:24 62.32474 -33.55568 11157 ft 134 kts 58°
2026-05-08 19:24 62.32871 -33.53750 11157 ft 134 kts 58°
2026-05-08 19:25 62.33267 -33.51934 11158 ft 134 kts 58°
2026-05-08 19:25 62.33661 -33.50116 11157 ft 134 kts 58°
2026-05-08 19:25 62.34054 -33.48304 11157 ft 134 kts 58°
2026-05-08 19:25 62.34448 -33.46485 11158 ft 134 kts 58°
2026-05-08 19:26 62.34845 -33.44650 11160 ft 136 kts 58°
2026-05-08 19:26 62.35244 -33.42800 11163 ft 136 kts 58°
2026-05-08 19:26 62.35641 -33.40944 11164 ft 136 kts 59°
2026-05-08 19:26 62.36039 -33.39094 11161 ft 136 kts 59°
2026-05-08 19:27 62.36431 -33.37271 11162 ft 136 kts 59°
2026-05-08 19:27 62.36833 -33.35404 11160 ft 135 kts 59°
2026-05-08 19:27 62.37226 -33.33566 11159 ft 135 kts 59°
2026-05-08 19:27 62.37612 -33.31757 11158 ft 135 kts 59°
2026-05-08 19:28 62.38003 -33.29920 11161 ft 135 kts 59°
2026-05-08 19:28 62.38401 -33.28056 11166 ft 135 kts 59°
2026-05-08 19:28 62.38788 -33.26240 11166 ft 135 kts 59°
2026-05-08 19:28 62.39179 -33.24402 11166 ft 135 kts 59°
2026-05-08 19:29 62.39569 -33.22560 11172 ft 135 kts 59°
2026-05-08 19:29 62.39958 -33.20715 11171 ft 135 kts 59°
2026-05-08 19:29 62.40342 -33.18867 11172 ft 135 kts 59°
2026-05-08 19:29 62.40730 -33.17023 11171 ft 135 kts 59°
2026-05-08 19:30 62.41118 -33.15189 11172 ft 135 kts 59°
2026-05-08 19:30 62.41503 -33.13347 11172 ft 135 kts 59°
2026-05-08 19:30 62.41883 -33.11495 11172 ft 135 kts 60°
2026-05-08 19:30 62.42266 -33.09642 11170 ft 135 kts 60°
2026-05-08 19:31 62.42652 -33.07793 11167 ft 135 kts 59°
2026-05-08 19:31 62.43036 -33.05944 11167 ft 135 kts 59°
2026-05-08 19:31 62.43418 -33.04095 11165 ft 135 kts 59°
2026-05-08 19:31 62.43797 -33.02243 11166 ft 135 kts 59°
2026-05-08 19:32 62.44178 -33.00396 11168 ft 134 kts 60°
2026-05-08 19:32 62.44562 -32.98555 11166 ft 135 kts 60°
2026-05-08 19:32 62.44944 -32.96705 11164 ft 135 kts 60°
2026-05-08 19:32 62.45320 -32.94849 11167 ft 135 kts 60°
2026-05-08 19:33 62.45698 -32.92998 11167 ft 135 kts 60°
2026-05-08 19:33 62.46077 -32.91153 11167 ft 134 kts 59°
2026-05-08 19:33 62.46464 -32.89317 11165 ft 134 kts 57°
2026-05-08 19:33 62.46862 -32.87492 11165 ft 134 kts 58°
2026-05-08 19:34 62.47263 -32.85668 11165 ft 134 kts 58°
2026-05-08 19:34 62.47662 -32.83850 11169 ft 134 kts 58°
2026-05-08 19:34 62.48059 -32.82028 11169 ft 134 kts 58°
2026-05-08 19:34 62.48456 -32.80203 11168 ft 134 kts 58°
2026-05-08 19:35 62.48850 -32.78372 11166 ft 134 kts 58°
2026-05-08 19:35 62.49246 -32.76547 11166 ft 134 kts 58°
2026-05-08 19:35 62.49642 -32.74736 11164 ft 134 kts 58°
2026-05-08 19:35 62.50035 -32.72914 11163 ft 134 kts 58°
2026-05-08 19:36 62.50292 -32.71703 11160 ft 134 kts 58°
2026-05-08 19:36 62.50683 -32.69879 11159 ft 134 kts 59°
2026-05-08 19:36 62.51075 -32.68058 11160 ft 133 kts 58°
2026-05-08 19:36 62.51592 -32.65650 11161 ft 133 kts 58°
2026-05-08 19:37 62.51978 -32.63828 11163 ft 133 kts 59°
2026-05-08 19:37 62.52239 -32.62594 11165 ft 133 kts 58°
2026-05-08 19:37 62.52751 -32.60179 11165 ft 134 kts 59°
2026-05-08 19:37 62.53014 -32.58940 11166 ft 134 kts 58°
2026-05-08 19:38 62.53403 -32.57102 11174 ft 134 kts 59°
2026-05-08 19:38 62.53784 -32.55271 11172 ft 133 kts 59°
2026-05-08 19:38 62.54165 -32.53446 11171 ft 133 kts 59°
2026-05-08 19:38 62.54547 -32.51634 11169 ft 132 kts 59°
2026-05-08 19:39 62.54920 -32.49843 11169 ft 132 kts 59°
2026-05-08 19:39 62.55295 -32.48022 11168 ft 132 kts 59°
2026-05-08 19:39 62.55669 -32.46203 11168 ft 132 kts 59°
2026-05-08 19:39 62.56043 -32.44386 11168 ft 132 kts 59°
2026-05-08 19:40 62.56418 -32.42578 11166 ft 132 kts 59°
2026-05-08 19:40 62.56791 -32.40764 11165 ft 132 kts 59°
2026-05-08 19:40 62.57160 -32.38937 11167 ft 132 kts 59°
2026-05-08 19:40 62.57533 -32.37115 11168 ft 132 kts 60°
2026-05-08 19:41 62.57908 -32.35293 11169 ft 132 kts 59°
2026-05-08 19:41 62.58282 -32.33464 11168 ft 133 kts 59°
2026-05-08 19:41 62.58654 -32.31632 11167 ft 133 kts 60°
2026-05-08 19:41 62.59026 -32.29802 11167 ft 132 kts 59°
2026-05-08 19:42 62.59397 -32.27978 11171 ft 132 kts 59°
2026-05-08 19:42 62.59769 -32.26159 11170 ft 132 kts 60°
2026-05-08 19:42 62.60140 -32.24330 11170 ft 133 kts 60°
2026-05-08 19:42 62.60508 -32.22490 11171 ft 133 kts 60°
2026-05-08 19:43 62.60879 -32.20650 11168 ft 133 kts 60°
2026-05-08 19:43 62.61253 -32.18820 11168 ft 133 kts 59°
2026-05-08 19:43 62.61623 -32.16985 11166 ft 133 kts 59°
2026-05-08 19:43 62.61988 -32.15141 11166 ft 133 kts 60°
2026-05-08 19:44 62.62355 -32.13302 11166 ft 133 kts 60°
2026-05-08 19:44 62.62723 -32.11467 11166 ft 132 kts 60°
2026-05-08 19:44 62.63091 -32.09630 11166 ft 133 kts 60°
2026-05-08 19:44 62.63458 -32.07784 11165 ft 134 kts 60°
2026-05-08 19:45 62.63823 -32.05926 11170 ft 133 kts 60°
2026-05-08 19:45 62.64189 -32.04076 11170 ft 133 kts 60°
2026-05-08 19:45 62.64553 -32.02261 11167 ft 133 kts 60°
2026-05-08 19:45 62.64915 -32.00420 11165 ft 133 kts 60°
2026-05-08 19:46 62.65274 -31.98575 11166 ft 132 kts 60°
2026-05-08 19:46 62.65633 -31.96735 11170 ft 133 kts 60°
2026-05-08 19:46 62.66364 -31.93024 11172 ft 134 kts 60°
2026-05-08 19:47 62.66727 -31.91159 11172 ft 134 kts 61°
2026-05-08 19:47 62.67086 -31.89296 11173 ft 133 kts 60°
2026-05-08 19:47 62.67444 -31.87442 11171 ft 133 kts 60°
2026-05-08 19:47 62.67804 -31.85600 11170 ft 132 kts 60°
2026-05-08 19:48 62.68161 -31.83752 11169 ft 132 kts 60°
2026-05-08 19:48 62.68512 -31.81899 11169 ft 132 kts 61°
2026-05-08 19:48 62.68866 -31.80050 11168 ft 132 kts 61°
2026-05-08 19:48 62.69221 -31.78212 11168 ft 131 kts 61°
2026-05-08 19:49 62.69572 -31.76376 11165 ft 131 kts 61°
2026-05-08 19:49 62.69921 -31.74536 11164 ft 132 kts 61°
2026-05-08 19:49 62.70271 -31.72691 11164 ft 132 kts 60°
2026-05-08 19:49 62.70622 -31.70840 11167 ft 132 kts 61°
2026-05-08 19:50 62.70978 -31.68988 11167 ft 133 kts 61°
2026-05-08 19:50 62.71333 -31.67114 11167 ft 134 kts 61°
2026-05-08 19:50 62.71687 -31.65229 11168 ft 134 kts 61°
2026-05-08 19:50 62.72042 -31.63354 11168 ft 133 kts 62°
2026-05-08 19:51 62.72395 -31.61489 11168 ft 133 kts 61°
2026-05-08 19:51 62.72745 -31.59624 11167 ft 133 kts 61°
2026-05-08 19:51 62.73097 -31.57747 11170 ft 135 kts 62°
2026-05-08 19:51 62.73455 -31.55845 11175 ft 137 kts 61°
2026-05-08 19:52 62.73819 -31.53920 11181 ft 138 kts 62°
2026-05-08 19:52 62.74186 -31.51989 11181 ft 138 kts 62°
2026-05-08 19:52 62.74549 -31.50062 11177 ft 137 kts 62°
2026-05-08 19:52 62.74905 -31.48144 11173 ft 135 kts 62°
2026-05-08 19:53 62.75258 -31.46247 11170 ft 135 kts 62°
2026-05-08 19:53 62.75613 -31.44367 11170 ft 134 kts 61°
2026-05-08 19:53 62.75964 -31.42481 11168 ft 134 kts 61°
2026-05-08 19:53 62.76311 -31.40594 11166 ft 134 kts 62°
2026-05-08 19:54 62.76654 -31.38736 11168 ft 134 kts 62°
2026-05-08 19:54 62.77002 -31.36854 11169 ft 134 kts 62°
2026-05-08 19:54 62.77350 -31.34968 11170 ft 134 kts 62°
2026-05-08 19:54 62.77696 -31.33081 11169 ft 134 kts 62°
2026-05-08 19:55 62.78038 -31.31185 11164 ft 134 kts 62°
2026-05-08 19:55 62.78384 -31.29297 11164 ft 133 kts 62°
2026-05-08 19:55 62.78738 -31.27425 11162 ft 133 kts 62°
2026-05-08 19:55 62.79087 -31.25552 11174 ft 133 kts 62°
2026-05-08 19:56 62.79436 -31.23678 11178 ft 133 kts 62°
2026-05-08 19:56 62.79782 -31.21801 11178 ft 133 kts 62°
2026-05-08 19:56 62.80127 -31.19923 11179 ft 133 kts 62°
2026-05-08 19:56 62.80472 -31.18037 11181 ft 134 kts 62°
2026-05-08 19:57 62.80820 -31.16135 11183 ft 136 kts 62°
2026-05-08 19:57 62.81174 -31.14216 11186 ft 136 kts 62°
2026-05-08 19:57 62.81529 -31.12285 11185 ft 137 kts 62°
2026-05-08 19:57 62.81884 -31.10341 11183 ft 139 kts 62°
2026-05-08 19:58 62.82242 -31.08370 11184 ft 141 kts 62°
2026-05-08 19:58 62.82605 -31.06372 11183 ft 142 kts 62°
2026-05-08 19:58 62.82967 -31.04367 11177 ft 141 kts 63°
2026-05-08 19:58 62.83326 -31.02392 11168 ft 138 kts 62°
2026-05-08 19:59 62.83659 -31.00439 11167 ft 136 kts 65°
2026-05-08 19:59 62.83964 -30.98487 11169 ft 135 kts 65°
2026-05-08 19:59 62.84265 -30.96551 11166 ft 134 kts 65°
2026-05-08 19:59 62.84563 -30.94626 11166 ft 134 kts 65°
2026-05-08 20:00 62.84860 -30.92699 11167 ft 133 kts 65°
2026-05-08 20:00 62.85159 -30.90777 11169 ft 133 kts 63°
2026-05-08 20:00 62.85480 -30.88873 11166 ft 133 kts 63°
2026-05-08 20:00 62.85790 -30.86995 11178 ft 133 kts 64°
2026-05-08 20:01 62.86100 -30.85088 11179 ft 133 kts 64°
2026-05-08 20:01 62.86413 -30.83178 11179 ft 133 kts 63°
2026-05-08 20:01 62.86737 -30.81277 11179 ft 134 kts 63°
2026-05-08 20:01 62.87060 -30.79369 11180 ft 133 kts 63°
2026-05-08 20:02 62.87383 -30.77464 11180 ft 133 kts 63°
2026-05-08 20:02 62.87707 -30.75558 11180 ft 134 kts 63°
2026-05-08 20:02 62.88029 -30.73647 11179 ft 134 kts 63°
2026-05-08 20:02 62.88349 -30.71736 11178 ft 134 kts 63°
2026-05-08 20:03 62.88670 -30.69827 11179 ft 133 kts 63°
2026-05-08 20:03 62.88991 -30.67921 11174 ft 133 kts 63°
2026-05-08 20:03 62.89312 -30.66013 11173 ft 134 kts 63°
2026-05-08 20:03 62.89631 -30.64099 11173 ft 134 kts 63°
2026-05-08 20:04 62.89948 -30.62180 11173 ft 134 kts 63°
2026-05-08 20:04 62.90266 -30.60262 11174 ft 134 kts 63°
2026-05-08 20:04 62.90584 -30.58347 11174 ft 134 kts 63°
2026-05-08 20:04 62.90900 -30.56431 11173 ft 133 kts 63°
2026-05-08 20:05 62.91214 -30.54513 11186 ft 134 kts 63°
2026-05-08 20:05 62.91529 -30.52589 11184 ft 134 kts 63°
2026-05-08 20:05 62.91843 -30.50665 11184 ft 134 kts 63°
2026-05-08 20:05 62.92157 -30.48744 11184 ft 134 kts 64°
2026-05-08 20:06 62.92467 -30.46822 11181 ft 134 kts 64°
2026-05-08 20:06 62.92776 -30.44891 11181 ft 134 kts 64°
2026-05-08 20:06 62.93087 -30.42968 11180 ft 134 kts 64°
2026-05-08 20:06 62.93400 -30.41053 11177 ft 133 kts 63°
2026-05-08 20:07 62.93711 -30.39132 11182 ft 133 kts 64°
2026-05-08 20:07 62.94018 -30.37207 11182 ft 134 kts 64°
2026-05-08 20:07 62.94325 -30.35282 11182 ft 133 kts 64°
2026-05-08 20:07 62.94624 -30.33355 11184 ft 134 kts 68°
2026-05-08 20:08 62.94900 -30.31407 11178 ft 133 kts 63°
2026-05-08 20:08 62.95221 -30.29506 11178 ft 133 kts 63°
2026-05-08 20:08 62.95539 -30.27594 11177 ft 133 kts 63°
2026-05-08 20:08 62.95852 -30.25678 11177 ft 133 kts 64°
2026-05-08 20:09 62.96164 -30.23763 11175 ft 133 kts 64°
2026-05-08 20:09 62.96475 -30.21844 11175 ft 133 kts 64°
2026-05-08 20:09 62.96787 -30.19922 11174 ft 134 kts 64°
2026-05-08 20:09 62.97099 -30.17995 11175 ft 134 kts 64°
2026-05-08 20:10 62.97410 -30.16069 11180 ft 134 kts 64°
2026-05-08 20:10 62.97720 -30.14147 11180 ft 133 kts 63°
2026-05-08 20:10 62.98031 -30.12221 11180 ft 134 kts 63°
2026-05-08 20:10 62.98342 -30.10291 11180 ft 134 kts 64°
2026-05-08 20:11 62.98649 -30.08382 11178 ft 134 kts 64°
2026-05-08 20:11 62.98959 -30.06453 11178 ft 134 kts 64°
2026-05-08 20:11 62.99269 -30.04523 11178 ft 134 kts 64°
2026-05-08 20:11 62.99578 -30.02592 11177 ft 134 kts 63°
2026-05-08 20:12 62.99888 -30.00658 11174 ft 134 kts 64°
2026-05-08 20:12 63.00149 -29.98660 11110 ft 140 kts 69°
2026-05-08 20:12 63.00446 -29.96583 11011 ft 144 kts 67°
2026-05-08 20:12 63.00739 -29.94510 11005 ft 140 kts 67°
2026-05-08 20:13 63.01020 -29.92468 11005 ft 139 kts 67°
2026-05-08 20:13 63.01296 -29.90442 11002 ft 138 kts 67°
2026-05-08 20:13 63.01570 -29.88432 11001 ft 136 kts 68°
2026-05-08 20:13 63.01841 -29.86435 10998 ft 136 kts 67°
2026-05-08 20:14 63.02111 -29.84447 11000 ft 136 kts 67°
2026-05-08 20:14 63.02380 -29.82460 11009 ft 135 kts 66°
2026-05-08 20:14 63.02646 -29.80492 11008 ft 134 kts 66°
2026-05-08 20:14 63.02910 -29.78532 11009 ft 133 kts 67°
2026-05-08 20:15 63.03174 -29.76578 11005 ft 133 kts 66°
2026-05-08 20:15 63.03437 -29.74626 11002 ft 133 kts 65°
2026-05-08 20:15 63.03701 -29.72667 11005 ft 133 kts 66°
2026-05-08 20:15 63.03964 -29.70706 11006 ft 133 kts 67°
2026-05-08 20:16 63.04227 -29.68747 11005 ft 133 kts 66°
2026-05-08 20:16 63.04490 -29.66791 11004 ft 133 kts 66°
2026-05-08 20:16 63.04753 -29.64831 11002 ft 133 kts 65°
2026-05-08 20:16 63.05013 -29.62874 11004 ft 133 kts 66°
2026-05-08 20:17 63.05275 -29.60915 11008 ft 133 kts 68°
2026-05-08 20:17 63.05536 -29.58963 11005 ft 133 kts 66°
2026-05-08 20:17 63.05793 -29.57031 11005 ft 133 kts 66°
2026-05-08 20:17 63.06056 -29.55064 10997 ft 134 kts 66°
2026-05-08 20:18 63.06317 -29.53095 10996 ft 134 kts 67°
2026-05-08 20:18 63.06577 -29.51130 10997 ft 133 kts 68°
2026-05-08 20:18 63.06838 -29.49168 10995 ft 133 kts 67°
2026-05-08 20:18 63.07098 -29.47207 10993 ft 134 kts 66°
2026-05-08 20:19 63.07358 -29.45236 11000 ft 134 kts 67°
2026-05-08 20:19 63.07618 -29.43266 11001 ft 133 kts 67°
2026-05-08 20:19 63.07878 -29.41302 11001 ft 133 kts 67°
2026-05-08 20:19 63.08137 -29.39336 11000 ft 133 kts 67°
2026-05-08 20:20 63.08396 -29.37369 10995 ft 134 kts 66°
2026-05-08 20:20 63.08654 -29.35401 10997 ft 133 kts 67°
2026-05-08 20:20 63.08913 -29.33432 10998 ft 133 kts 68°
2026-05-08 20:20 63.09171 -29.31467 10996 ft 133 kts 66°
2026-05-08 20:21 63.09429 -29.29498 10995 ft 134 kts 66°
2026-05-08 20:21 63.09687 -29.27525 10995 ft 134 kts 66°
2026-05-08 20:21 63.09945 -29.25552 10998 ft 134 kts 67°
2026-05-08 20:21 63.10201 -29.23584 11003 ft 133 kts 68°
2026-05-08 20:22 63.10459 -29.21613 11003 ft 134 kts 66°
2026-05-08 20:22 63.10715 -29.19639 11002 ft 134 kts 66°
2026-05-08 20:22 63.10973 -29.17660 11002 ft 134 kts 68°
2026-05-08 20:22 63.11142 -29.16354 11002 ft 134 kts 67°
2026-05-08 20:23 63.11484 -29.13716 11000 ft 133 kts 68°
2026-05-08 20:23 63.11739 -29.11749 11000 ft 133 kts 68°
2026-05-08 20:23 63.11996 -29.09772 11008 ft 134 kts 65°
2026-05-08 20:23 63.12250 -29.07795 11010 ft 134 kts 67°
2026-05-08 20:24 63.12505 -29.05822 11007 ft 133 kts 67°
2026-05-08 20:24 63.12758 -29.03855 11006 ft 133 kts 66°
2026-05-08 20:24 63.12926 -29.02554 11005 ft 133 kts 66°
2026-05-08 20:24 63.13179 -29.00586 11004 ft 133 kts 66°
2026-05-08 20:25 63.13432 -28.98616 11008 ft 133 kts 66°
2026-05-08 20:25 63.13685 -28.96646 11005 ft 133 kts 66°
2026-05-08 20:25 63.14019 -28.94035 11004 ft 133 kts 66°
2026-05-08 20:25 63.14190 -28.92704 11004 ft 133 kts 67°
2026-05-08 20:26 63.14442 -28.90732 10999 ft 133 kts 66°
2026-05-08 20:26 63.14694 -28.88755 11002 ft 133 kts 66°
2026-05-08 20:26 63.14947 -28.86771 11003 ft 134 kts 66°
2026-05-08 20:26 63.15201 -28.84780 11003 ft 134 kts 66°
2026-05-08 20:27 63.15454 -28.82787 11008 ft 135 kts 67°
2026-05-08 20:27 63.15710 -28.80778 11006 ft 136 kts 66°
2026-05-08 20:27 63.15958 -28.78806 11006 ft 135 kts 66°
2026-05-08 20:27 63.16210 -28.76819 11006 ft 134 kts 68°
2026-05-08 20:28 63.16461 -28.74844 11003 ft 134 kts 67°
2026-05-08 20:28 63.16711 -28.72862 11002 ft 134 kts 66°
2026-05-08 20:28 63.16961 -28.70885 11002 ft 133 kts 66°
2026-05-08 20:28 63.17209 -28.68908 11002 ft 133 kts 66°
2026-05-08 20:29 63.17457 -28.66941 10997 ft 132 kts 67°
2026-05-08 20:29 63.17705 -28.64975 10995 ft 133 kts 67°
2026-05-08 20:29 63.17953 -28.63000 10994 ft 134 kts 66°
2026-05-08 20:29 63.18201 -28.61014 10997 ft 134 kts 67°
2026-05-08 20:30 63.18449 -28.59034 10996 ft 133 kts 67°
2026-05-08 20:30 63.18697 -28.57058 10996 ft 133 kts 67°
2026-05-08 20:30 63.18944 -28.55083 10995 ft 133 kts 66°
2026-05-08 20:30 63.19191 -28.53102 10993 ft 134 kts 66°
2026-05-08 20:31 63.19438 -28.51115 10996 ft 134 kts 66°
2026-05-08 20:31 63.19685 -28.49129 10997 ft 133 kts 68°
2026-05-08 20:31 63.19931 -28.47149 10996 ft 134 kts 66°
2026-05-08 20:31 63.20179 -28.45156 10998 ft 135 kts 67°
2026-05-08 20:32 63.20429 -28.43137 11001 ft 137 kts 67°
2026-05-08 20:32 63.20681 -28.41095 11005 ft 138 kts 67°
2026-05-08 20:32 63.20936 -28.39032 11004 ft 139 kts 68°
2026-05-08 20:32 63.21195 -28.36948 10995 ft 142 kts 67°
2026-05-08 20:33 63.21453 -28.34837 10992 ft 142 kts 67°
2026-05-08 20:33 63.21712 -28.32730 10993 ft 142 kts 68°
2026-05-08 20:33 63.21972 -28.30618 10995 ft 142 kts 68°
2026-05-08 20:33 63.22228 -28.28531 10997 ft 142 kts 68°
2026-05-08 20:34 63.22490 -28.26403 10994 ft 142 kts 68°
2026-05-08 20:34 63.22747 -28.24301 10988 ft 141 kts 67°
2026-05-08 20:34 63.23254 -28.20143 10986 ft 139 kts 68°
2026-05-08 20:35 63.23505 -28.18087 10985 ft 138 kts 68°
2026-05-08 20:35 63.23755 -28.16037 10983 ft 137 kts 68°
2026-05-08 20:35 63.24003 -28.13999 10985 ft 136 kts 68°
2026-05-08 20:35 63.24249 -28.11970 10984 ft 136 kts 68°
2026-05-08 20:36 63.24496 -28.09944 10987 ft 137 kts 68°
2026-05-08 20:36 63.24745 -28.07880 10985 ft 139 kts 68°
2026-05-08 20:36 63.24999 -28.05787 10988 ft 142 kts 68°
2026-05-08 20:36 63.25255 -28.03663 10991 ft 143 kts 68°
2026-05-08 20:37 63.25511 -28.01538 10989 ft 141 kts 68°
2026-05-08 20:37 63.25761 -27.99452 10984 ft 139 kts 68°
2026-05-08 20:37 63.26009 -27.97398 10980 ft 137 kts 68°
2026-05-08 20:37 63.26254 -27.95359 10977 ft 136 kts 67°
2026-05-08 20:38 63.26497 -27.93333 10977 ft 136 kts 68°
2026-05-08 20:38 63.26739 -27.91316 10980 ft 135 kts 68°
2026-05-08 20:38 63.26980 -27.89302 10978 ft 135 kts 68°
2026-05-08 20:38 63.27222 -27.87283 10979 ft 136 kts 68°
2026-05-08 20:39 63.27464 -27.85249 10985 ft 137 kts 68°
2026-05-08 20:39 63.27708 -27.83198 10988 ft 138 kts 68°
2026-05-08 20:39 63.27953 -27.81134 10990 ft 138 kts 69°
2026-05-08 20:39 63.28199 -27.79070 10986 ft 138 kts 68°
2026-05-08 20:40 63.28443 -27.77011 10979 ft 138 kts 67°
2026-05-08 20:40 63.28685 -27.74961 10982 ft 137 kts 68°
2026-05-08 20:40 63.28926 -27.72929 10981 ft 136 kts 68°
2026-05-08 20:40 63.29165 -27.70907 10980 ft 135 kts 68°
2026-05-08 20:41 63.29403 -27.68896 10982 ft 134 kts 68°
2026-05-08 20:41 63.29640 -27.66884 10981 ft 135 kts 67°
2026-05-08 20:41 63.29877 -27.64868 10982 ft 135 kts 68°
2026-05-08 20:41 63.30114 -27.62851 10995 ft 135 kts 69°
2026-05-08 20:42 63.30350 -27.60839 10997 ft 134 kts 68°
2026-05-08 20:42 63.30585 -27.58836 10996 ft 134 kts 68°
2026-05-08 20:42 63.30818 -27.56837 10995 ft 134 kts 68°
2026-05-08 20:42 63.31051 -27.54841 10994 ft 133 kts 68°
2026-05-08 20:43 63.31281 -27.52878 10991 ft 133 kts 68°
2026-05-08 20:43 63.31513 -27.50892 10990 ft 133 kts 68°
2026-05-08 20:43 63.31745 -27.48902 10987 ft 133 kts 68°
2026-05-08 20:43 63.31975 -27.46914 10986 ft 133 kts 68°
2026-05-08 20:44 63.32205 -27.44929 10989 ft 133 kts 68°
2026-05-08 20:44 63.32436 -27.42942 10989 ft 133 kts 68°
2026-05-08 20:44 63.32666 -27.40953 10989 ft 133 kts 69°
2026-05-08 20:44 63.32897 -27.38961 10990 ft 133 kts 68°
2026-05-08 20:45 63.33128 -27.36963 10990 ft 133 kts 68°
2026-05-08 20:45 63.33283 -27.35612 10990 ft 133 kts 68°
2026-05-08 20:45 63.33587 -27.32967 10989 ft 133 kts 68°
2026-05-08 20:45 63.33816 -27.30972 10989 ft 133 kts 69°
2026-05-08 20:46 63.34046 -27.28977 10986 ft 133 kts 69°
2026-05-08 20:46 63.34276 -27.26976 10987 ft 134 kts 69°
2026-05-08 20:46 63.34506 -27.24966 10987 ft 134 kts 69°
2026-05-08 20:46 63.34736 -27.22953 10988 ft 134 kts 69°
2026-05-08 20:47 63.34965 -27.20938 10990 ft 134 kts 69°
2026-05-08 20:47 63.35195 -27.18925 10987 ft 134 kts 69°
2026-05-08 20:47 63.35424 -27.16918 10986 ft 134 kts 69°
2026-05-08 20:47 63.35652 -27.14912 10986 ft 134 kts 69°
2026-05-08 20:48 63.35880 -27.12904 10985 ft 133 kts 69°
2026-05-08 20:48 63.36106 -27.10904 10983 ft 133 kts 69°
2026-05-08 20:48 63.36332 -27.08905 10983 ft 133 kts 69°
2026-05-08 20:48 63.36559 -27.06903 10985 ft 134 kts 69°
2026-05-08 20:49 63.36786 -27.04892 10982 ft 134 kts 69°
2026-05-08 20:49 63.37013 -27.02884 10982 ft 133 kts 69°
2026-05-08 20:49 63.37238 -27.00881 10978 ft 133 kts 68°
2026-05-08 20:49 63.37464 -26.98877 10976 ft 133 kts 68°
2026-05-08 20:50 63.37688 -26.96873 10976 ft 133 kts 68°
2026-05-08 20:50 63.37913 -26.94869 10977 ft 133 kts 69°
2026-05-08 20:50 63.38137 -26.92869 10975 ft 133 kts 68°
2026-05-08 20:50 63.38369 -26.90885 10982 ft 131 kts 62°
2026-05-08 20:51 63.38666 -26.88974 11003 ft 131 kts 65°
2026-05-08 20:51 63.38936 -26.87022 10997 ft 131 kts 65°
2026-05-08 20:51 63.39211 -26.85081 10996 ft 131 kts 64°
2026-05-08 20:51 63.39489 -26.83144 10996 ft 131 kts 64°
2026-05-08 20:52 63.39767 -26.81209 10996 ft 131 kts 64°
2026-05-08 20:52 63.40045 -26.79280 10995 ft 131 kts 64°
2026-05-08 20:52 63.40320 -26.77373 10995 ft 131 kts 64°
2026-05-08 20:52 63.40598 -26.75443 10995 ft 131 kts 64°
2026-05-08 20:53 63.40879 -26.73485 10997 ft 131 kts 64°
2026-05-08 20:53 63.41155 -26.71555 10996 ft 130 kts 64°
2026-05-08 20:53 63.41432 -26.69626 10996 ft 130 kts 64°
2026-05-08 20:53 63.41708 -26.67697 10996 ft 130 kts 64°
2026-05-08 20:54 63.41984 -26.65766 10994 ft 131 kts 64°
2026-05-08 20:54 63.42260 -26.63833 10994 ft 131 kts 64°
2026-05-08 20:54 63.42536 -26.61899 10993 ft 131 kts 64°
2026-05-08 20:54 63.42811 -26.59967 10987 ft 130 kts 64°
2026-05-08 20:55 63.43086 -26.58036 10987 ft 131 kts 64°
2026-05-08 20:55 63.43358 -26.56122 10987 ft 131 kts 64°
2026-05-08 20:55 63.43633 -26.54187 10987 ft 131 kts 64°
2026-05-08 20:55 63.43908 -26.52250 10986 ft 131 kts 64°
2026-05-08 20:56 63.44182 -26.50315 10986 ft 131 kts 64°
2026-05-08 20:56 63.44456 -26.48376 10987 ft 131 kts 64°
2026-05-08 20:56 63.44731 -26.46434 10987 ft 131 kts 64°
2026-05-08 20:56 63.45004 -26.44492 10987 ft 131 kts 64°
2026-05-08 20:57 63.45278 -26.42552 10986 ft 131 kts 64°
2026-05-08 20:57 63.45552 -26.40611 10986 ft 131 kts 64°
2026-05-08 20:57 63.45826 -26.38665 10987 ft 131 kts 64°
2026-05-08 20:57 63.46099 -26.36719 10986 ft 131 kts 64°
2026-05-08 20:58 63.46372 -26.34770 10987 ft 131 kts 64°
2026-05-08 20:58 63.46646 -26.32820 10986 ft 131 kts 64°
2026-05-08 20:58 63.46919 -26.30871 10984 ft 132 kts 65°
2026-05-08 20:58 63.47193 -26.28917 10984 ft 132 kts 64°
2026-05-08 20:59 63.47467 -26.26957 10984 ft 132 kts 64°
2026-05-08 20:59 63.47740 -26.24995 10984 ft 132 kts 64°
2026-05-08 20:59 63.48013 -26.23036 10983 ft 132 kts 64°
2026-05-08 20:59 63.48285 -26.21077 10983 ft 132 kts 64°
2026-05-08 21:00 63.48557 -26.19122 10982 ft 132 kts 64°
2026-05-08 21:00 63.48829 -26.17166 10982 ft 132 kts 64°
2026-05-08 21:00 63.49101 -26.15205 10992 ft 132 kts 64°
2026-05-08 21:00 63.49372 -26.13249 10992 ft 131 kts 64°
2026-05-08 21:01 63.49641 -26.11300 10992 ft 131 kts 64°
2026-05-08 21:01 63.49910 -26.09358 10990 ft 130 kts 64°
2026-05-08 21:01 63.50178 -26.07423 10989 ft 130 kts 64°
2026-05-08 21:01 63.50444 -26.05493 10988 ft 130 kts 64°
2026-05-08 21:02 63.50711 -26.03559 10988 ft 130 kts 64°
2026-05-08 21:02 63.50976 -26.01625 10989 ft 130 kts 64°
2026-05-08 21:02 63.51242 -25.99688 10989 ft 130 kts 64°
2026-05-08 21:02 63.51505 -25.97775 10988 ft 130 kts 64°
2026-05-08 21:03 63.51771 -25.95841 10988 ft 130 kts 64°
2026-05-08 21:03 63.52036 -25.93904 10989 ft 130 kts 64°
2026-05-08 21:03 63.52301 -25.91971 10986 ft 130 kts 64°
2026-05-08 21:03 63.52565 -25.90037 10990 ft 130 kts 64°
2026-05-08 21:04 63.52828 -25.88103 10988 ft 130 kts 64°
2026-05-08 21:04 63.53092 -25.86168 10986 ft 130 kts 64°
2026-05-08 21:04 63.53356 -25.84235 10986 ft 130 kts 64°
2026-05-08 21:04 63.53619 -25.82302 10987 ft 130 kts 64°
2026-05-08 21:05 63.53881 -25.80369 10988 ft 130 kts 64°
2026-05-08 21:05 63.54144 -25.78434 10987 ft 129 kts 64°
2026-05-08 21:05 63.54405 -25.76502 10986 ft 129 kts 64°
2026-05-08 21:05 63.54666 -25.74574 10986 ft 129 kts 64°
2026-05-08 21:06 63.54928 -25.72644 10986 ft 129 kts 64°
2026-05-08 21:06 63.55189 -25.70712 10988 ft 130 kts 64°
2026-05-08 21:06 63.55450 -25.68775 10984 ft 130 kts 64°
2026-05-08 21:06 63.55711 -25.66835 10985 ft 130 kts 64°
2026-05-08 21:07 63.55972 -25.64893 10980 ft 130 kts 64°
2026-05-08 21:07 63.56233 -25.62952 10980 ft 130 kts 64°
2026-05-08 21:07 63.56494 -25.61012 10980 ft 130 kts 64°
2026-05-08 21:07 63.56754 -25.59074 10984 ft 130 kts 64°
2026-05-08 21:08 63.57014 -25.57132 10983 ft 130 kts 64°
2026-05-08 21:08 63.57274 -25.55190 10985 ft 130 kts 64°
2026-05-08 21:08 63.57532 -25.53251 10984 ft 130 kts 64°
2026-05-08 21:08 63.57791 -25.51315 10983 ft 129 kts 64°
2026-05-08 21:09 63.58049 -25.49381 10981 ft 130 kts 64°
2026-05-08 21:09 63.58308 -25.47440 10981 ft 130 kts 64°
2026-05-08 21:09 63.58566 -25.45495 10982 ft 130 kts 64°
2026-05-08 21:09 63.58824 -25.43550 10996 ft 130 kts 64°
2026-05-08 21:10 63.59079 -25.41628 10981 ft 130 kts 63°
2026-05-08 21:10 63.59335 -25.39694 10981 ft 129 kts 63°
2026-05-08 21:10 63.59589 -25.37771 10977 ft 128 kts 63°
2026-05-08 21:10 63.59846 -25.35830 10976 ft 128 kts 63°
2026-05-08 21:11 63.60096 -25.33943 10979 ft 128 kts 63°
2026-05-08 21:11 63.60348 -25.32027 10977 ft 128 kts 63°
2026-05-08 21:11 63.60601 -25.30110 10980 ft 128 kts 63°
2026-05-08 21:11 63.60853 -25.28194 10975 ft 128 kts 63°
2026-05-08 21:12 63.61104 -25.26282 10979 ft 128 kts 63°
2026-05-08 21:12 63.61356 -25.24366 10975 ft 128 kts 63°
2026-05-08 21:12 63.61607 -25.22450 10971 ft 128 kts 63°
2026-05-08 21:12 63.61858 -25.20534 10973 ft 128 kts 63°
2026-05-08 21:13 63.62109 -25.18611 10974 ft 128 kts 63°
2026-05-08 21:13 63.62279 -25.17311 10975 ft 128 kts 64°
2026-05-08 21:13 63.62530 -25.15389 10980 ft 128 kts 64°
2026-05-08 21:13 63.62778 -25.13489 10968 ft 128 kts 64°
2026-05-08 21:14 63.63029 -25.11563 10966 ft 128 kts 63°
2026-05-08 21:14 63.63278 -25.09640 10964 ft 128 kts 63°
2026-05-08 21:14 63.63528 -25.07714 10964 ft 128 kts 64°
2026-05-08 21:14 63.63778 -25.05788 10966 ft 128 kts 64°
2026-05-08 21:15 63.64029 -25.03858 10964 ft 128 kts 64°
2026-05-08 21:15 63.64279 -25.01926 10965 ft 129 kts 64°
2026-05-08 21:15 63.64529 -24.99995 10965 ft 128 kts 64°
2026-05-08 21:15 63.64777 -24.98064 10963 ft 128 kts 63°
2026-05-08 21:16 63.65026 -24.96137 10967 ft 128 kts 64°
2026-05-08 21:16 63.65274 -24.94211 10967 ft 128 kts 64°
2026-05-08 21:16 63.65522 -24.92285 10967 ft 128 kts 64°
2026-05-08 21:16 63.65769 -24.90361 10965 ft 128 kts 64°
2026-05-08 21:17 63.66017 -24.88432 10966 ft 128 kts 64°
2026-05-08 21:17 63.66264 -24.86503 10966 ft 128 kts 64°
2026-05-08 21:17 63.66510 -24.84576 10963 ft 128 kts 64°
2026-05-08 21:17 63.66757 -24.82647 10963 ft 128 kts 64°
2026-05-08 21:18 63.67003 -24.80716 10965 ft 128 kts 64°
2026-05-08 21:18 63.67250 -24.78788 10964 ft 128 kts 64°
2026-05-08 21:18 63.67492 -24.76884 10967 ft 128 kts 64°
2026-05-08 21:18 63.67783 -24.74996 10976 ft 126 kts 58°
2026-05-08 21:19 63.68061 -24.73105 10974 ft 127 kts 62°
2026-05-08 21:19 63.68339 -24.71207 10970 ft 128 kts 62°
2026-05-08 21:19 63.68619 -24.69340 10975 ft 127 kts 61°
2026-05-08 21:19 63.68904 -24.67451 10970 ft 127 kts 61°
2026-05-08 21:20 63.69189 -24.65559 10969 ft 128 kts 61°
2026-05-08 21:20 63.69475 -24.63663 10971 ft 128 kts 61°
2026-05-08 21:20 63.69761 -24.61773 10971 ft 127 kts 61°
2026-05-08 21:20 63.70045 -24.59891 10968 ft 127 kts 61°
2026-05-08 21:21 63.70327 -24.58016 10967 ft 126 kts 61°
2026-05-08 21:21 63.70610 -24.56134 10970 ft 127 kts 61°
2026-05-08 21:21 63.70895 -24.54240 10971 ft 128 kts 61°
2026-05-08 21:21 63.71180 -24.52341 10968 ft 128 kts 61°
2026-05-08 21:22 63.71463 -24.50452 10968 ft 127 kts 61°
2026-05-08 21:22 63.71744 -24.48576 10968 ft 126 kts 60°
2026-05-08 21:22 63.72023 -24.46711 10969 ft 125 kts 60°
2026-05-08 21:22 63.72301 -24.44851 10965 ft 125 kts 60°
2026-05-08 21:23 63.72578 -24.42996 10970 ft 125 kts 60°
2026-05-08 21:23 63.72854 -24.41146 10972 ft 125 kts 61°
2026-05-08 21:23 63.73131 -24.39291 10969 ft 125 kts 61°
2026-05-08 21:23 63.73409 -24.37429 10967 ft 125 kts 61°
2026-05-08 21:24 63.73686 -24.35561 10971 ft 126 kts 61°
2026-05-08 21:24 63.73965 -24.33683 10970 ft 126 kts 61°
2026-05-08 21:24 63.74244 -24.31804 10967 ft 126 kts 61°
2026-05-08 21:24 63.74523 -24.29921 10973 ft 127 kts 61°
2026-05-08 21:25 63.74803 -24.28034 10968 ft 127 kts 61°
2026-05-08 21:25 63.75084 -24.26135 10978 ft 128 kts 61°
2026-05-08 21:25 63.75369 -24.24200 10982 ft 131 kts 62°
2026-05-08 21:25 63.75660 -24.22215 10987 ft 135 kts 62°
2026-05-08 21:26 63.75961 -24.20184 10989 ft 138 kts 63°
2026-05-08 21:26 63.76271 -24.18088 10985 ft 143 kts 63°
2026-05-08 21:26 63.76581 -24.15969 10987 ft 145 kts 63°
2026-05-08 21:26 63.76896 -24.13811 10985 ft 144 kts 63°
2026-05-08 21:27 63.77209 -24.11671 10978 ft 143 kts 62°
2026-05-08 21:27 63.77518 -24.09561 10976 ft 140 kts 62°
2026-05-08 21:27 63.77821 -24.07487 10972 ft 138 kts 62°
2026-05-08 21:27 63.78119 -24.05451 10967 ft 135 kts 62°
2026-05-08 21:28 63.78412 -24.03450 10969 ft 133 kts 62°
2026-05-08 21:28 63.78698 -24.01490 10969 ft 130 kts 62°
2026-05-08 21:28 63.78979 -23.99563 10977 ft 128 kts 61°
2026-05-08 21:28 63.79255 -23.97667 10984 ft 126 kts 60°
2026-05-08 21:29 63.79530 -23.95785 10971 ft 126 kts 60°
2026-05-08 21:29 63.79803 -23.93909 10968 ft 126 kts 60°
2026-05-08 21:29 63.80075 -23.92032 10968 ft 126 kts 60°
2026-05-08 21:29 63.80348 -23.90150 10973 ft 127 kts 61°
2026-05-08 21:30 63.80627 -23.88229 10985 ft 130 kts 61°
2026-05-08 21:30 63.80911 -23.86263 10980 ft 133 kts 61°
2026-05-08 21:30 63.81197 -23.84272 10980 ft 133 kts 61°
2026-05-08 21:30 63.81486 -23.82266 10979 ft 134 kts 61°
2026-05-08 21:31 63.81775 -23.80258 10981 ft 134 kts 61°
2026-05-08 21:31 63.82063 -23.78251 10979 ft 134 kts 62°
2026-05-08 21:31 63.82351 -23.76252 10978 ft 133 kts 62°
2026-05-08 21:31 63.82637 -23.74257 10979 ft 133 kts 61°
2026-05-08 21:32 63.82924 -23.72257 10978 ft 134 kts 61°
2026-05-08 21:32 63.83209 -23.70259 10977 ft 133 kts 61°
2026-05-08 21:32 63.83495 -23.68266 10973 ft 133 kts 61°
2026-05-08 21:32 63.83778 -23.66282 10968 ft 132 kts 61°
2026-05-08 21:33 63.84057 -23.64331 10965 ft 132 kts 61°
2026-05-08 21:33 63.84342 -23.62331 10962 ft 131 kts 61°
2026-05-08 21:33 63.84622 -23.60369 10963 ft 131 kts 61°
2026-05-08 21:33 63.84899 -23.58415 10962 ft 130 kts 61°
2026-05-08 21:34 63.85172 -23.56491 10961 ft 130 kts 61°
2026-05-08 21:34 63.85448 -23.54546 10961 ft 129 kts 61°
2026-05-08 21:34 63.85723 -23.52605 10959 ft 129 kts 61°
2026-05-08 21:34 63.85997 -23.50673 10960 ft 128 kts 61°
2026-05-08 21:35 63.86270 -23.48746 10960 ft 128 kts 61°
2026-05-08 21:35 63.86543 -23.46819 10959 ft 128 kts 61°
2026-05-08 21:35 63.86814 -23.44893 10959 ft 128 kts 61°
2026-05-08 21:35 63.87085 -23.42968 10962 ft 128 kts 61°
2026-05-08 21:36 63.87354 -23.41053 10960 ft 127 kts 61°
2026-05-08 21:36 63.87622 -23.39148 10958 ft 127 kts 61°
2026-05-08 21:36 63.87890 -23.37246 10956 ft 127 kts 61°
2026-05-08 21:36 63.88158 -23.35336 10954 ft 127 kts 61°
2026-05-08 21:37 63.88425 -23.33427 10952 ft 127 kts 61°
2026-05-08 21:37 63.88692 -23.31520 10951 ft 127 kts 61°
2026-05-08 21:37 63.88959 -23.29607 10949 ft 127 kts 61°
2026-05-08 21:37 63.89226 -23.27697 10948 ft 127 kts 62°
2026-05-08 21:38 63.89494 -23.25782 10946 ft 127 kts 61°
2026-05-08 21:38 63.89764 -23.23852 10915 ft 132 kts 61°
2026-05-08 21:38 63.90052 -23.21797 10778 ft 140 kts 62°
2026-05-08 21:38 63.90342 -23.19693 10638 ft 143 kts 62°
2026-05-08 21:39 63.90642 -23.17518 10492 ft 145 kts 62°
2026-05-08 21:39 63.90945 -23.15323 10344 ft 146 kts 62°
2026-05-08 21:39 63.91250 -23.13121 10184 ft 146 kts 63°
2026-05-08 21:39 63.91556 -23.10910 10028 ft 147 kts 63°
2026-05-08 21:40 63.91863 -23.08686 9827 ft 148 kts 63°
2026-05-08 21:40 63.92173 -23.06433 9605 ft 150 kts 63°
2026-05-08 21:40 63.92484 -23.04170 9389 ft 150 kts 64°
2026-05-08 21:41 63.93110 -22.99616 8955 ft 151 kts 64°
2026-05-08 21:41 63.93422 -22.97340 8739 ft 151 kts 64°
2026-05-08 21:41 63.93734 -22.95065 8540 ft 150 kts 65°
2026-05-08 21:41 63.94043 -22.92801 8351 ft 149 kts 65°
2026-05-08 21:42 63.94351 -22.90549 8165 ft 149 kts 65°
2026-05-08 21:42 63.94658 -22.88301 7983 ft 149 kts 65°
2026-05-08 21:42 63.94964 -22.86053 7799 ft 148 kts 65°
2026-05-08 21:42 63.95269 -22.83815 7615 ft 148 kts 66°
2026-05-08 21:43 63.95572 -22.81585 7431 ft 147 kts 66°
2026-05-08 21:43 63.95873 -22.79360 7254 ft 147 kts 66°
2026-05-08 21:43 63.96176 -22.77128 7072 ft 148 kts 66°
2026-05-08 21:43 63.96480 -22.74878 6901 ft 149 kts 67°
2026-05-08 21:44 63.96785 -22.72626 6722 ft 149 kts 67°
2026-05-08 21:44 63.97089 -22.70369 6538 ft 149 kts 67°
2026-05-08 21:44 63.97391 -22.68117 6350 ft 149 kts 67°
2026-05-08 21:44 63.97693 -22.65868 6161 ft 149 kts 68°
2026-05-08 21:45 63.97996 -22.63620 5971 ft 148 kts 67°
2026-05-08 21:45 63.98306 -22.61389 5785 ft 146 kts 62°
2026-05-08 21:45 63.98762 -22.59352 5631 ft 144 kts 57°
2026-05-08 21:45 63.99209 -22.57322 5448 ft 143 kts 57°
2026-05-08 21:46 63.99652 -22.55308 5278 ft 141 kts 57°
2026-05-08 21:46 64.00087 -22.53333 5119 ft 139 kts 57°
2026-05-08 21:46 64.00519 -22.51377 4956 ft 137 kts 57°
2026-05-08 21:46 64.00940 -22.49469 4797 ft 136 kts 57°
2026-05-08 21:47 64.01360 -22.47558 4623 ft 134 kts 57°
2026-05-08 21:47 64.01778 -22.45665 4465 ft 133 kts 57°
2026-05-08 21:47 64.02197 -22.43760 4302 ft 132 kts 58°
2026-05-08 21:47 64.02602 -22.41913 4142 ft 132 kts 58°
2026-05-08 21:48 64.03013 -22.40048 3984 ft 131 kts 58°
2026-05-08 21:48 64.03422 -22.38182 3823 ft 131 kts 58°
2026-05-08 21:48 64.03831 -22.36316 3670 ft 131 kts 59°
2026-05-08 21:48 64.04240 -22.34444 3515 ft 133 kts 58°
2026-05-08 21:49 64.04653 -22.32550 3356 ft 134 kts 59°
2026-05-08 21:49 64.05069 -22.30644 3194 ft 134 kts 59°
2026-05-08 21:49 64.05487 -22.28732 3032 ft 134 kts 59°
2026-05-08 21:49 64.05904 -22.26818 2871 ft 135 kts 60°
2026-05-08 21:50 64.06323 -22.24898 2707 ft 136 kts 60°
2026-05-08 21:50 64.06746 -22.22953 2546 ft 137 kts 60°
2026-05-08 21:50 64.07170 -22.21006 2386 ft 137 kts 60°
2026-05-08 21:50 64.07593 -22.19059 2223 ft 135 kts 60°
2026-05-08 21:51 64.08003 -22.17167 2057 ft 131 kts 59°
2026-05-08 21:51 64.08402 -22.15324 1888 ft 128 kts 60°
2026-05-08 21:51 64.08796 -22.13507 1720 ft 127 kts 60°
2026-05-08 21:51 64.09186 -22.11708 1558 ft 126 kts 60°
2026-05-08 21:52 64.09576 -22.09913 1401 ft 126 kts 59°
2026-05-08 21:52 64.10204 -22.08752 1290 ft 116 kts 18°
2026-05-08 21:52 64.10938 -22.08046 1241 ft 112 kts 16°
2026-05-08 21:52 64.11656 -22.07378 1189 ft 111 kts 18°
2026-05-08 21:53 64.12350 -22.06708 1132 ft 107 kts 18°
2026-05-08 21:53 64.13052 -22.06064 1029 ft 106 kts 16°
2026-05-08 21:53 64.13721 -22.05448 972 ft 103 kts 17°
2026-05-08 21:53 64.14402 -22.04860 857 ft 104 kts 15°
2026-05-08 21:54 64.15089 -22.04346 772 ft 102 kts 14°
2026-05-08 21:54 64.15732 -22.03715 693 ft 98 kts 24°
2026-05-08 21:54 64.16234 -22.02704 618 ft 98 kts 53°
2026-05-08 21:54 64.16490 -22.01250 588 ft 94 kts 81°
2026-05-08 21:55 64.16541 -21.99850 633 ft 86 kts 88°
2026-05-08 21:55 64.16506 -21.98489 684 ft 86 kts 104°
2026-05-08 21:55 64.16332 -21.97167 702 ft 88 kts 114°
2026-05-08 21:56 64.15620 -21.94793 557 ft 92 kts 148°
2026-05-08 21:56 64.15098 -21.94182 405 ft 76 kts 171°
2026-05-08 21:56 64.14632 -21.94045 316 ft 59 kts 185°
2026-05-08 21:56 64.14222 -21.93988 214 ft 59 kts 188°
2026-05-08 21:57 64.13799 -21.93914 112 ft 61 kts 187°
2026-05-08 21:57 64.13391 -21.93850 38 ft 52 kts 177°
2026-05-08 21:57 64.13133 -21.93790 40 ft 14 kts 159°
2026-05-08 21:57 64.13111 -21.93669 40 ft 8 kts 123°
2026-05-08 21:58 64.13073 -21.93574 40 ft 7 kts 138°
2026-05-08 21:58 64.13035 -21.93562 41 ft 5 kts 181°
2026-05-08 21:58 64.13004 -21.93565 41 ft 4 kts 182°
2026-05-08 21:58 64.12971 -21.93570 40 ft 5 kts 184°
2026-05-08 21:59 64.12932 -21.93558 39 ft 6 kts 151°
2026-05-08 21:59 64.12903 -21.93482 39 ft 6 kts 108°
2026-05-08 21:59 64.12902 -21.93412 40 ft 3 kts 82°
2026-05-08 21:59 64.12902 -21.93401 40 ft 1 kts 80°
2026-05-08 22:00 64.12922 -21.93399 41 ft 6 kts 274°
2026-05-08 22:00 64.12922 -21.93406 41 ft 0 kts 269°